EHI
0 0 0 0 0 0 0 0 0 0 0 0 2 7 14 23 35 43 48 52 52 43 30 22 17 14 10 7 4 3 4 7 9 8 5 3 4 4 3 3 2 2 2 1
0 0 0 0 0 0 0 0 0 0 0 0 2 7 14 21 30 38 44 46 43 34 23 16 13 10 7 4 3 3 4 6 6 5 4 3 3 2 2 2 2 1 1 0
0 0 0 0 0 0 0 0 0 0 0 0 1 4 9 15 21 29 34 33 27 20 13 9 7 6 3 1 1 1 2 2 2 2 3 4 3 1 1 2 2 1 1 1
0 0 0 0 0 0 0 0 0 0 0 0 0 1 3 8 13 18 20 18 13 9 6 4 3 2 1 0 0 0 0 0 0 1 3 5 4 2 2 2 2 1 1 2
0 0 0 0 0 0 0 0 0 0 0 0 0 0 1 4 8 10 10 7 5 3 1 1 1 1 0 0 0 0 0 0 0 1 3 4 3 2 3 3 2 1 1 1
0 0 0 0 0 0 0 0 0 0 0 0 0 0 0 2 6 7 5 3 1 1 0 0 0 0 0 0 0 0 0 0 0 1 1 2 2 2 3 3 1 1 1 1
0 0 0 0 0 0 0 0 0 0 0 0 0 0 0 2 4 4 2 1 1 0 0 0 0 0 0 0 0 0 0 0 0 0 0 0 0 1 2 1 1 1 1 0
0 0 0 0 0 0 0 0 0 0 0 0 0 0 0 2 2 2 0 0 1 0 0 0 0 0 0 0 0 0 0 0 0 0 0 0 0 0 1 1 0 0 0 0
0 0 0 0 0 0 0 0 0 0 0 0 0 0 0 1 2 1 0 0 0 0 0 0 0 0 0 0 0 0 0 0 0 0 0 0 0 0 0 0 0 0 0 0
0 0 0 0 0 0 0 0 0 0 0 0 0 0 0 0 1 0 0 0 0 0 0 0 0 0 0 0 0 0 0 0 0 0 0 0 0 0 0 0 0 0 0 0
0 0 0 0 0 0 0 0 0 0 0 0 0 0 0 0 0 0 0 0 0 0 0 0 0 0 0 0 0 0 0 0 0 0 0 0 0 0 0 0 0 0 0 0
0 0 0 0 0 0 0 0 0 0 0 0 0 0 0 0 0 0 0 0 0 0 0 0 0 0 0 0 0 0 0 0 0 0 0 0 0 0 0 0 0 0 0 0
0 0 0 0 0 0 0 0 0 0 0 0 0 0 0 0 0 0 0 0 0 0 0 0 0 0 0 0 0 0 0 0 0 0 0 0 0 0 0 0 0 0 0 0
0 0 0 0 0 0 0 0 0 0 0 0 0 0 0 0 0 0 0 0 0 0 0 0 0 0 0 0 0 0 0 0 0 0 0 0 0 0 0 0 0 0 0 0
0 0 0 0 0 0 0 0 0 0 0 0 0 0 0 0 0 0 0 0 0 0 0 0 0 0 0 0 0 0 0 0 0 0 0 0 0 0 0 0 0 0 0 0
0 0 0 0 0 0 0 0 0 0 0 0 0 0 0 0 0 0 0 0 0 0 0 0 0 0 0 0 0 0 0 0 0 0 0 0 0 0 0 0 0 0 0 0
0 0 0 0 0 0 0 0 0 0 0 0 0 0 0 0 0 0 0 0 0 0 0 0 0 0 0 0 0 0 0 0 0 0 0 0 0 0 0 0 0 0 0 0
0 0 0 0 0 0 0 0 0 0 0 0 0 0 0 0 0 0 0 0 0 0 0 0 0 0 0 0 0 0 0 0 0 0 0 0 0 0 0 0 0 0 0 0
0 0 0 0 0 0 0 0 0 0 0 0 0 0 0 0 0 0 0 0 0 0 0 0 0 0 0 0 0 0 0 0 0 0 0 0 0 0 0 0 0 0 0 0
0 0 0 0 0 0 0 0 0 0 0 0 0 0 0 0 0 0 0 0 0 0 0 0 0 0 0 0 0 0 0 0 0 0 0 0 0 0 0 0 0 0 0 0
0 0 0 0 0 0 0 0 0 0 0 0 0 0 0 0 0 0 0 0 0 0 0 0 0 0 0 0 0 0 0 0 0 0 0 0 0 0 0 0 0 0 0 0
0 0 0 0 0 0 0 0 0 0 0 0 0 0 0 0 0 0 0 0 0 0 0 0 0 0 0 0 0 0 0 0 0 0 0 0 0 0 0 0 0 0 0 0
0 0 0 0 0 0 0 0 0 0 0 0 0 0 0 0 0 0 0 0 0 0 0 0 0 0 0 0 0 0 0 0 0 0 0 0 0 0 0 0 0 0 0 0
0 0 0 0 0 0 0 0 0 0 0 0 0 0 0 0 0 0 0 0 0 0 0 0 0 0 0 0 0 0 0 0 0 0 0 0 0 0 0 0 0 0 0 0
0 0 0 0 0 0 0 0 0 0 0 0 0 0 0 0 0 0 0 0 0 0 0 0 0 0 0 0 0 0 0 0 0 0 0 0 0 0 0 0 0 0 0 0
0 0 0 0 0 0 0 0 0 0 0 0 0 0 0 0 0 0 0 0 0 0 0 0 0 0 0 0 0 0 0 0 0 0 0 0 0 0 0 0 0 0 0 0
Wind_Speed
3 2 6 10 9 11 7 3 4 5 6 6 6 6 9 10 12 10 9 10 11 10 8 8 8 8 7 6 4 2 3 2 1 1 2 1 1 1 3 3 5 5 5 5
3 5 12 10 5 3 2 3 4 5 7 7 8 11 12 16 15 13 13 12 10 8 8 8 6 6 6 5 3 3 2 2 2 3 2 2 2 2 3 2 3 4 5 5
5 4 5 6 6 4 3 2 2 3 5 8 6 7 9 12 16 17 15 12 9 9 8 6 6 6 7 6 5 3 2 1 1 2 2 1 1 1 1 1 2 3 5 5
3 6 9 8 6 2 3 4 3 4 4 4 4 1 3 7 13 14 12 10 9 7 6 5 6 7 7 6 5 5 4 3 2 2 1 0 0 1 2 2 2 3 4 4
4 5 7 6 5 4 3 2 3 3 2 2 3 3 2 4 8 8 8 8 7 5 5 4 5 6 6 6 6 5 6 6 5 5 4 3 2 2 2 2 2 2 2 3
3 3 2 4 6 4 1 5 7 6 6 3 3 3 3 3 2 3 4 5 4 4 3 3 4 5 5 5 5 5 5 5 5 6 6 6 5 5 4 4 3 3 2 2
7 7 4 2 4 6 5 7 6 7 6 3 1 4 2 3 5 5 4 3 4 4 3 2 3 4 4 4 4 4 4 4 4 5 5 5 5 5 5 4 4 4 3 3
2 7 5 2 1 2 1 7 5 3 4 3 2 2 3 3 2 2 2 2 3 3 2 2 3 4 4 4 4 4 3 1 1 2 3 3 3 3 3 4 4 4 3 4
4 6 5 4 3 2 1 0 5 5 1 1 1 0 1 2 3 3 3 2 3 3 3 3 3 4 4 5 4 4 4 2 1 1 1 1 2 2 3 4 3 3 3 4
5 3 4 5 6 5 2 1 6 4 1 3 2 3 4 6 7 6 4 3 3 2 3 3 4 4 5 6 5 5 5 5 5 4 4 3 4 4 4 4 5 5 5 4
3 3 5 6 4 3 4 4 4 2 3 3 2 4 4 8 7 6 5 4 3 3 3 3 4 4 5 5 5 6 6 6 6 6 6 6 6 6 5 5 6 6 5 5
3 5 2 4 5 1 2 0 3 2 2 1 1 5 3 4 4 3 2 2 2 3 4 4 5 3 3 3 4 6 6 7 8 8 7 8 7 7 6 7 8 7 6 6
4 6 4 9 9 6 5 4 1 4 4 2 2 5 3 1 1 2 2 3 4 5 6 5 4 4 4 5 6 7 7 8 8 8 8 8 8 8 9 9 9 8 7 7
5 5 4 2 6 3 4 8 6 6 4 2 1 3 4 4 4 5 5 6 6 5 4 4 4 5 5 6 7 7 8 9 9 8 9 9 10 10 10 10 9 9 8 8
7 3 3 3 3 8 8 7 7 7 4 3 2 2 3 4 3 4 6 6 5 5 6 7 7 7 7 7 8 8 8 9 9 8 9 10 11 10 9 9 10 10 9 10
5 3 5 5 5 9 9 8 7 6 5 3 3 2 3 3 4 6 7 7 6 7 8 9 9 9 9 9 9 9 9 9 8 8 9 10 9 9 9 10 10 9 9 9
2 3 4 4 5 4 6 6 5 4 4 3 2 3 5 6 7 8 8 7 8 9 10 10 10 10 10 10 10 10 10 9 8 9 9 9 8 8 9 9 8 8 8 8
5 3 3 2 6 3 2 2 5 4 4 4 1 4 4 6 7 6 7 7 10 11 11 11 11 11 10 10 10 9 9 9 9 9 8 8 7 8 7 7 7 8 7 7
4 5 3 3 2 1 1 3 3 2 1 2 3 5 7 7 6 6 8 9 11 12 13 12 11 12 10 9 9 8 8 8 8 8 8 8 7 7 7 7 7 7 6 7
5 6 6 3 2 3 3 4 3 1 2 2 4 6 7 7 7 7 9 11 12 12 10 10 9 8 8 8 7 7 8 8 9 9 9 8 7 8 8 8 8 7 6 7
5 6 5 2 1 3 4 5 5 3 7 6 4 6 6 6 7 10 12 11 10 10 9 8 8 8 8 9 9 10 11 11 11 10 10 10 9 9 9 8 8 7 7 7
3 3 1 2 1 5 4 3 2 5 5 5 5 5 7 8 10 10 10 10 9 9 8 8 8 9 10 10 10 11 12 12 11 11 11 11 10 10 10 7 7 7 7 7
3 7 6 6 6 5 1 3 4 4 3 4 5 7 7 8 9 10 8 8 8 8 9 9 10 12 12 11 10 13 14 13 13 12 12 11 11 10 9 8 8 6 6 6
2 3 4 2 2 3 2 1 1 1 3 5 5 7 7 8 9 9 8 8 8 9 9 10 12 14 14 13 13 13 14 13 13 13 12 11 10 9 8 7 6 6 6 6
4 3 3 1 1 0 2 3 3 3 4 5 6 6 7 7 7 7 7 8 9 9 9 10 12 14 16 15 15 14 13 12 12 12 11 10 9 8 7 6 6 7 6 6
1 5 5 5 5 4 5 4 2 4 5 6 6 8 8 6 7 7 8 8 9 11 11 13 14 15 16 16 15 15 13 11 11 10 9 7 6 5 5 5 5 7 8 10
Wind_Direction
309 118 244 248 218 215 239 271 308 310 334 41 53 50 36 51 62 70 71 74 78 77 74 73 74 82 86 81 85 103 138 158 195 298 314 276 246 228 205 207 186 173 166 159
332 249 242 250 273 265 307 355 338 328 351 37 52 54 51 48 53 58 66 69 73 73 65 64 63 74 84 89 86 91 143 161 210 224 230 237 210 228 221 219 211 187 172 167
212 266 318 327 323 338 338 335 334 339 4 27 64 41 47 49 56 59 55 52 54 65 66 65 67 70 72 63 54 53 39 46 245 249 258 315 356 338 323 263 232 211 186 180
15 344 352 339 316 339 309 312 7 9 29 353 47 57 19 57 57 56 57 54 46 45 54 62 68 67 69 72 66 52 54 52 5 327 330 115 226 243 261 257 254 241 214 197
329 333 345 332 312 336 271 332 23 4 36 39 15 105 336 35 53 49 58 65 60 51 56 61 67 69 67 65 63 54 45 32 14 9 7 12 2 319 307 313 294 269 260 239
278 270 238 263 297 293 326 31 18 36 56 12 311 111 341 13 95 90 81 92 94 82 80 88 87 85 80 75 68 59 51 36 23 24 18 17 9 356 357 352 340 313 295 281
324 315 301 279 323 338 43 63 20 357 3 278 347 102 212 181 159 145 156 149 134 144 149 134 117 110 110 103 96 82 67 40 19 26 23 13 8 0 358 347 336 329 319 312
305 303 297 298 224 240 310 120 141 218 246 275 3 158 221 198 176 167 169 161 154 177 179 175 167 152 148 149 144 133 121 102 26 24 8 4 1 353 337 333 330 329 320 310
199 268 301 316 324 107 24 264 176 155 294 35 262 219 288 215 214 220 212 176 171 184 173 178 182 175 175 175 173 169 165 179 211 227 261 288 311 316 312 314 316 312 312 316
172 249 321 337 32 23 121 123 59 62 38 319 292 217 215 204 222 222 213 203 202 196 193 196 198 198 191 184 181 179 182 196 214 223 230 235 248 258 269 284 294 295 298 306
118 93 333 6 19 344 15 32 75 93 158 160 283 272 234 200 203 204 211 210 218 231 238 243 243 231 213 196 191 196 204 212 222 227 230 235 243 247 252 257 263 268 275 284
49 96 358 306 293 349 55 100 132 141 301 124 152 276 273 205 206 190 201 247 281 292 288 285 287 285 268 242 233 230 230 230 232 231 230 235 239 240 243 248 253 254 259 265
72 80 33 345 343 352 9 360 72 122 90 62 52 300 337 360 35 39 25 353 329 324 325 330 334 319 289 266 255 251 247 243 242 237 234 240 243 241 242 245 248 248 249 255
94 82 130 217 270 309 40 42 43 82 87 61 12 318 360 12 21 13 1 336 327 331 338 335 313 291 278 268 260 256 255 249 247 240 235 238 240 239 240 244 246 246 245 246
83 60 328 301 73 84 78 59 60 73 85 95 340 68 12 9 4 343 331 327 334 336 324 309 295 282 275 272 267 261 258 255 250 243 239 238 239 238 238 240 242 243 242 243
74 65 18 360 86 96 74 45 46 53 46 33 60 74 330 324 340 337 333 328 319 307 301 296 290 284 278 273 270 267 264 260 251 245 243 241 237 234 234 236 236 236 238 241
76 79 47 330 324 68 30 16 37 36 31 62 63 300 310 332 333 320 313 304 298 299 299 294 286 276 273 272 269 268 266 262 257 251 248 245 241 238 237 238 236 232 232 233
132 105 106 1 19 29 234 44 57 76 81 69 38 307 312 303 293 290 295 295 298 297 294 289 282 279 277 276 276 275 275 271 266 261 256 251 245 242 240 238 237 234 229 227
134 126 91 77 12 231 354 9 6 334 213 44 351 325 316 306 315 295 281 283 286 287 286 286 287 291 296 298 300 302 300 297 291 283 274 266 257 249 240 235 235 233 228 230
44 79 90 70 18 271 269 310 311 8 257 330 351 324 312 328 328 289 286 290 289 291 295 302 309 314 314 312 313 308 299 293 287 282 277 272 265 258 250 240 233 229 225 232
24 36 65 71 307 275 278 315 37 54 276 296 305 304 305 299 269 279 296 299 301 306 311 318 318 314 304 300 301 299 296 291 288 286 282 277 268 262 259 250 240 233 229 229
124 105 95 95 8 276 312 40 77 240 258 286 294 293 293 286 285 292 302 308 314 317 316 314 311 306 301 302 302 299 295 291 290 289 286 281 273 269 272 257 247 235 227 229
147 175 177 176 205 225 160 147 202 218 266 284 288 296 296 299 299 307 312 315 315 313 312 313 310 310 309 306 301 298 296 294 291 287 283 279 276 268 261 254 250 244 230 225
248 153 114 118 171 170 148 147 299 289 293 297 301 303 307 306 311 318 317 317 317 315 314 313 316 316 314 310 304 298 297 294 290 287 284 278 273 267 259 250 243 240 229 219
208 141 113 145 246 331 332 329 321 336 336 328 320 312 316 320 321 320 320 318 318 317 314 316 319 316 314 313 309 305 302 299 294 289 285 279 270 263 258 250 240 233 227 215
208 150 149 208 223 203 260 282 336 357 335 324 325 324 324 328 322 325 322 318 318 319 320 321 319 317 315 314 311 310 307 304 299 296 291 283 273 264 255 253 259 242 235 233